Location: Downe
(51.3167°N, 0.0500°E)
Time: 21:09:06
(UTC+00:00)

Cosmos 2322 - Pass Details

Date: 17 November 2019
Orbit: 841 x 854 km, 71.0° (Epoch: 12 December)

Event Time Altitude Azimuth Distance (km) Brightness Sun altitude
Exits shadow 05:25:24 - 335° (NNW) 2,558 5.9 -17.6°
Reaches altitude 10° 05:25:36 10° 335° (NNW) 2,488 5.8 -17.6°
Maximum altitude 05:31:13 56° 54° (NE) 1,006 4.3 -16.7°
Drops below altitude 10° 05:36:47 10° 132° (SE) 2,465 7.0 -15.9°
Sets 05:39:16 0° 137° (SE) 3,395 7.8 -15.5°
